Location: Lachaise
(45.8833°N, 1.8500°E)
Time: 00:34:54
(UTC+00:00)

Cosmos 1937 Rocket - Pass Details

Date: 07 June 2020
Orbit: 746 x 781 km, 74.0° (Epoch: 11 July)

Event Time Altitude Azimuth Distance (km) Brightness Sun altitude
Rises 00:58:41 0° 331° (NNW) 3,248 7.4 -19.7°
Reaches altitude 10° 01:01:12 10° 323° (NW) 2,323 6.5 -19.5°
Maximum altitude 01:06:00 37° 258° (WSW) 1,196 4.2 -19.3°
Enters shadow 01:07:12 33° 229° (SW) 1,296 4.2 -19.2°
